Temperature
27 27 27 27 27 27 26 27 27 27 28 27 27 26 25 24 24 24 23 23 23 22 22 21 21 20 20 20 20 19 19 19 19 19 18 17 17 16 16 16 15 15 15 14
26 27 26 26 27 27 27 27 27 27 27 26 25 24 23 23 23 23 23 23 22 22 21 21 21 20 20 20 20 20 20 19 19 19 18 18 17 17 16 16 15 15 15 15
25 26 25 25 27 26 26 27 27 26 26 25 24 22 21 21 21 22 22 22 22 21 21 21 21 20 20 20 20 19 20 19 19 18 18 18 17 17 16 16 16 15 15 15
25 24 23 26 26 26 26 26 26 25 25 24 22 20 19 18 19 20 20 21 21 21 20 20 20 20 19 19 19 19 19 19 18 18 18 18 17 17 16 16 16 15 15 15
24 24 25 25 25 25 25 25 24 24 23 22 21 21 20 17 17 18 18 19 19 19 19 19 19 19 19 19 19 19 18 18 18 18 18 17 17 17 16 16 16 15 15 15
23 23 24 24 24 23 24 23 22 23 22 22 22 23 21 17 16 16 17 17 18 18 18 18 18 18 18 18 18 18 18 17 17 17 17 17 17 17 16 16 16 15 15 15
23 23 24 24 23 23 23 22 21 21 21 21 20 19 17 16 15 15 16 16 16 17 17 17 17 17 17 17 17 17 17 17 17 17 17 16 16 16 16 15 15 15 15 14
23 23 23 23 23 23 21 19 20 19 19 18 17 16 16 15 15 15 15 15 15 16 16 16 16 16 16 16 16 16 16 16 16 16 16 16 16 15 15 15 14 15 14 14
23 23 21 21 21 20 19 19 19 18 18 17 17 16 15 15 14 14 14 14 14 15 15 15 15 15 15 15 15 15 15 15 16 16 15 15 15 14 14 14 14 13 13 14
22 22 21 20 19 18 18 18 18 17 17 17 16 15 15 14 14 13 13 13 14 14 14 14 14 14 14 14 14 14 14 14 15 15 14 14 14 13 13 13 13 13 13 13
21 21 20 19 18 18 17 17 16 16 16 15 15 15 14 14 13 13 13 13 13 13 13 13 13 13 13 13 13 13 13 13 13 13 13 13 13 13 12 12 12 12 12 12
21 19 20 18 17 17 16 16 15 15 15 15 14 14 13 13 13 12 12 12 12 12 12 12 12 12 12 12 12 12 12 12 12 12 12 12 12 11 11 11 11 11 11 11
17 17 17 16 16 16 15 15 15 14 14 14 13 13 13 13 12 12 12 12 11 11 11 11 11 11 11 11 11 11 11 11 11 11 11 11 11 11 11 11 11 10 10 10
15 16 16 15 15 14 14 14 14 13 13 13 13 13 13 12 12 12 11 11 11 11 11 11 11 10 10 10 10 10 10 10 10 10 10 11 11 11 11 11 11 11 10 10
15 15 15 14 14 14 13 13 13 13 13 12 12 12 12 12 12 11 11 11 11 11 11 11 10 10 10 10 10 10 10 10 10 10 10 10 10 10 10 10 10 10 10 10
14 13 13 13 13 13 13 13 12 12 12 12 11 11 11 11 11 11 10 10 10 10 10 10 10 10 9 9 9 9 10 10 9 10 10 10 10 10 10 10 10 10 10 10
14 13 13 12 12 12 12 12 12 12 11 11 11 11 11 11 11 10 10 10 10 10 10 9 9 9 9 9 9 10 10 10 10 10 10 10 10 9 9 9 9 9 9 9
13 13 12 12 12 11 11 11 11 11 11 11 11 11 11 10 10 10 10 10 10 10 9 9 9 9 9 9 9 9 9 10 10 10 9 9 9 9 9 9 9 8 8 8
12 12 11 11 11 11 11 11 10 10 10 10 10 10 10 10 10 9 9 9 9 10 9 9 9 9 8 8 8 8 9 9 9 9 9 9 8 8 8 8 8 8 8 7
11 11 11 11 11 11 10 10 10 10 10 10 10 10 10 10 9 9 9 9 9 9 8 8 8 8 8 8 8 8 8 8 9 9 8 8 8 8 8 7 7 7 7 6
11 11 11 11 11 10 10 10 10 10 10 10 9 9 9 9 9 9 9 9 8 8 8 8 8 8 7 7 7 7 8 8 8 8 8 7 7 7 7 6 6 6 6 6
11 11 11 11 10 10 10 10 10 9 9 9 9 9 9 9 9 9 8 8 8 7 7 7 7 7 7 6 6 7 7 7 7 7 6 6 6 6 5 5 5 5 5 5
10 10 10 10 10 10 9 9 9 9 9 9 9 8 8 8 8 8 8 8 7 7 6 6 6 6 6 6 6 6 6 6 6 5 5 5 5 4 4 4 4 4 4 4
10 9 9 9 9 9 9 9 9 9 8 8 8 8 8 8 8 8 7 7 6 6 6 5 5 5 5 5 5 5 5 4 4 4 4 4 4 3 3 3 3 3 3 3
9 9 9 9 9 9 9 9 9 8 8 8 8 8 7 7 7 7 6 6 5 5 5 5 4 4 4 4 4 4 4 3 3 3 3 3 3 3 3 3 3 3 2 3
8 9 9 8 8 8 8 8 8 8 8 8 8 7 7 6 6 6 5 5 5 4 4 4 4 3 3 3 3 3 3 2 2 2 2 2 2 2 2 2 2 2 2 2
8 8 8 8 8 8 8 8 7 7 7 7 6 6 6 6 5 5 5 5 4 4 4 3 3 3 3 2 2 2 2 2 1 1 1 1 1 1 2 2 2 2 2 2
Wind_Speed
10 6 7 9 10 11 13 13 13 11 9 6 4 3 2 2 5 8 11 12 14 15 15 15 16 16 16 16 16 15 16 16 16 15 14 14 13 13 12 12 12 12 11 11
9 7 8 11 11 12 13 13 14 13 10 3 3 3 2 1 2 5 8 10 11 12 13 14 15 15 15 15 15 15 15 15 14 14 14 14 13 13 13 12 12 12 12 12
9 5 8 12 9 9 9 8 9 10 4 2 3 5 5 4 2 2 3 5 7 8 10 10 12 13 13 13 13 13 14 13 13 13 14 14 14 13 13 13 13 12 12 13
6 5 9 2 1 3 5 5 3 3 2 2 3 5 6 6 4 3 0 1 3 4 5 6 7 9 10 11 11 12 12 12 12 13 13 12 13 13 13 12 12 12 13 13
6 9 7 3 2 2 4 2 2 1 1 2 5 6 7 8 6 5 4 3 2 1 2 3 4 6 8 8 9 10 10 11 11 11 11 12 12 12 12 11 11 12 12 13
6 7 5 2 4 0 3 3 4 3 2 1 3 3 5 7 7 6 6 5 5 4 5 4 3 5 6 7 7 7 7 7 7 8 9 10 10 10 10 10 10 11 11 12
8 7 3 5 2 3 4 2 5 4 4 3 4 6 6 6 8 8 8 8 7 7 7 7 5 5 5 4 3 3 3 4 5 6 7 7 7 8 8 9 9 10 10 11
6 6 2 4 1 1 3 6 5 6 7 8 9 9 8 9 9 10 10 10 9 9 9 8 7 6 5 4 2 2 3 3 4 4 5 5 6 7 7 8 9 9 9 10
1 2 5 4 4 4 5 6 6 7 9 10 10 10 10 10 10 11 11 11 10 11 11 10 9 8 7 5 4 3 3 3 3 3 2 3 4 6 6 7 8 8 8 9
1 3 4 4 4 5 6 7 9 10 10 11 12 11 10 10 10 10 11 10 10 11 11 11 10 9 8 7 5 4 3 3 2 2 1 1 3 4 5 5 6 7 8 8
1 3 4 5 5 7 9 10 12 12 12 12 12 11 10 9 9 9 9 9 9 10 10 10 9 8 8 7 5 5 4 3 3 2 1 0 1 2 4 4 4 6 7 8
2 2 1 5 6 9 11 12 13 14 13 12 12 11 10 9 8 8 9 8 9 9 9 9 8 8 8 7 5 5 5 4 3 3 2 2 2 2 2 4 4 6 8 9
1 2 6 9 10 11 13 14 14 13 13 11 10 9 9 8 7 7 8 8 8 7 7 7 7 7 6 6 6 6 5 5 4 4 3 3 4 5 5 5 9 12 13 13
5 8 11 11 13 13 15 15 14 13 12 10 9 8 8 7 7 7 7 6 6 5 5 5 6 6 5 5 5 5 4 3 3 3 4 4 5 6 6 8 8 8 9 12
7 8 12 14 15 15 14 13 12 11 10 9 7 7 6 5 5 4 4 4 4 4 4 4 4 4 4 4 4 4 4 4 4 5 5 6 6 7 8 9 10 10 11 8
12 14 15 15 15 14 13 12 10 9 8 7 6 5 4 3 2 2 3 3 3 3 3 3 3 3 4 4 5 4 4 4 5 7 8 8 8 8 9 10 11 11 11 12
14 14 14 14 13 12 10 9 8 7 6 4 3 3 2 2 2 2 3 3 3 3 3 3 4 5 5 6 7 7 8 6 6 8 8 8 9 10 10 11 11 12 12 11
13 14 13 12 11 10 8 7 5 4 3 2 2 2 3 3 4 4 4 4 4 4 4 4 5 6 7 7 7 8 9 10 9 9 9 9 10 11 11 12 13 14 13 12
14 13 12 11 9 7 6 5 3 2 2 2 3 4 3 4 4 5 5 6 6 5 4 6 5 7 7 7 8 8 10 10 10 10 10 10 10 11 11 12 13 13 13 13
11 10 9 8 7 5 4 2 2 2 3 3 4 4 5 5 6 6 6 6 5 6 6 7 8 8 8 8 8 10 11 11 11 11 10 11 11 11 12 12 12 13 13 13
8 7 5 4 4 4 3 3 3 3 3 3 4 5 5 6 6 6 7 6 4 6 7 7 7 7 7 9 10 11 11 11 11 11 11 11 11 12 12 12 12 12 12 12
4 4 3 3 2 2 3 3 3 3 4 4 5 6 6 7 7 6 5 5 5 6 7 8 8 8 11 12 11 11 11 11 11 11 11 11 11 11 11 12 12 11 11 12
3 2 2 2 2 2 3 3 4 4 5 5 5 6 7 7 7 7 7 5 6 8 8 7 7 8 13 11 10 10 10 11 11 11 10 10 10 10 11 12 11 11 11 12
3 2 3 3 4 4 5 5 5 5 6 6 5 5 6 7 6 6 7 4 5 7 8 4 4 8 12 8 9 9 9 9 10 10 10 10 10 10 10 10 11 11 11 13
3 3 4 5 6 5 6 6 7 6 7 6 6 6 6 6 7 7 7 8 7 7 8 4 2 7 8 8 8 8 8 8 9 10 10 10 10 10 10 10 10 10 10 10
4 5 5 6 6 6 7 7 7 6 6 6 6 6 6 6 7 7 7 8 8 7 7 6 6 6 7 8 8 8 8 8 8 8 10 10 10 10 9 10 11 10 9 9
6 5 5 6 5 5 6 6 6 6 6 6 7 7 7 7 7 7 7 7 7 6 6 6 6 6 7 7 7 8 8 8 8 9 9 9 8 9 9 10 9 9 9 9
Wind_Direction
261 266 257 254 242 226 236 255 269 278 282 302 335 345 320 232 202 197 194 196 200 202 202 203 204 205 207 207 205 202 200 201 202 200 199 200 200 200 200 203 206 208 213 217
244 238 245 253 250 241 244 256 263 269 274 342 22 26 26 353 210 196 199 201 200 201 203 205 207 207 206 206 202 199 201 203 199 195 195 198 200 200 202 206 212 213 217 221
244 230 253 248 244 243 246 253 264 270 291 43 43 45 34 17 349 223 207 202 202 202 204 206 207 206 204 202 196 195 200 202 197 195 196 198 200 201 205 208 212 216 221 225
248 237 246 242 62 267 259 263 283 303 347 51 81 84 61 35 22 18 41 174 188 197 198 202 202 201 201 195 191 194 198 200 197 197 197 199 203 205 209 212 216 219 224 228
246 245 248 192 164 236 250 236 18 348 48 117 141 131 81 44 34 32 31 41 67 112 157 167 178 184 182 185 185 192 199 200 197 198 198 198 205 209 211 214 219 223 227 231
232 254 254 105 103 148 250 200 66 47 66 136 202 219 76 38 34 40 44 46 49 62 78 92 110 142 156 165 174 189 195 194 192 196 201 203 206 209 209 214 222 229 232 234
234 247 249 79 106 221 251 95 77 69 72 90 80 59 73 56 51 51 53 58 62 62 62 60 70 96 114 124 144 168 175 174 177 189 203 210 211 212 215 219 226 233 242 241
228 239 217 90 144 333 68 101 104 95 90 93 96 93 85 73 65 61 59 59 64 67 62 55 57 77 82 73 59 89 120 138 164 182 201 204 213 217 221 228 231 233 238 247
236 52 76 77 64 80 117 120 116 109 105 108 104 96 89 81 73 67 63 61 64 71 67 60 55 59 67 58 51 61 94 121 137 150 179 207 218 223 226 228 243 249 249 253
165 94 91 89 96 108 114 117 117 114 112 110 104 99 92 84 77 70 63 62 64 69 68 61 55 54 53 49 49 57 61 68 93 110 148 198 239 241 243 245 247 254 260 264
211 115 106 98 103 117 116 116 114 111 108 106 104 98 92 86 80 76 71 64 61 64 66 63 58 54 51 53 55 60 60 56 59 72 74 17 277 296 285 287 299 286 284 285
344 78 78 107 116 128 125 121 117 114 108 102 101 101 95 86 79 76 73 69 66 65 66 64 61 56 49 46 48 51 51 40 32 31 25 349 325 301 244 260 257 250 254 267
23 66 99 114 117 118 118 116 112 108 104 99 93 92 90 87 82 78 73 67 64 63 65 63 60 56 47 40 41 42 36 26 17 11 1 344 330 317 306 268 235 239 241 242
99 114 114 114 114 113 113 111 107 102 98 94 92 88 84 82 78 73 66 62 60 60 60 57 52 46 35 33 31 28 18 25 350 342 334 324 317 308 302 303 302 294 258 235
92 107 115 116 113 109 108 107 103 98 94 88 81 74 71 68 66 65 62 53 48 46 44 40 36 27 13 6 2 349 337 337 338 325 311 309 308 304 303 303 302 302 302 287
105 108 112 112 109 108 108 105 101 94 85 76 66 55 49 45 40 41 37 23 9 14 14 4 356 351 342 333 322 307 297 283 288 301 301 302 302 304 305 306 304 303 302 303
117 115 114 112 110 107 104 99 95 88 79 69 55 29 12 9 8 12 2 358 342 329 323 324 327 330 324 317 311 310 309 300 259 279 293 301 305 305 304 302 301 301 300 306
104 107 109 110 109 105 99 92 82 70 52 26 359 347 344 344 341 339 331 327 320 315 320 328 337 325 312 310 310 308 305 303 301 300 301 300 303 301 300 299 299 299 300 299
100 102 103 102 99 96 92 81 71 49 7 335 332 337 338 337 334 326 320 312 309 312 341 348 338 310 311 316 313 296 299 301 299 298 296 294 289 292 298 301 302 304 303 302
99 100 100 100 98 93 86 74 49 16 351 341 336 338 341 340 334 329 322 311 334 352 344 336 320 315 316 325 323 305 303 303 301 301 301 300 300 302 303 304 305 305 303 303
96 95 92 87 74 56 37 15 356 350 346 339 336 335 335 334 332 328 319 324 1 1 333 309 304 323 331 336 310 302 304 306 306 306 305 305 305 305 304 305 305 304 304 305
85 85 80 65 42 19 6 344 338 338 338 335 334 334 332 329 328 324 324 333 340 4 330 322 334 4 343 319 307 309 310 310 310 309 309 310 310 309 309 309 308 308 307 306
71 67 51 22 358 336 322 321 326 326 324 324 325 327 328 327 324 320 320 342 338 349 326 331 1 352 323 309 311 315 317 317 316 315 316 317 315 312 310 309 309 310 309 308
38 23 4 347 327 309 308 315 315 311 307 302 307 321 318 314 316 322 332 348 344 332 320 358 1 327 306 311 321 325 325 323 322 322 321 318 316 315 314 315 314 312 310 310
353 332 326 320 306 307 308 302 298 296 295 304 314 323 319 324 323 327 325 324 334 320 319 339 344 315 317 332 336 337 334 338 336 329 325 323 321 320 319 319 320 318 317 319
315 306 314 308 310 307 305 305 306 312 316 318 320 325 325 324 323 323 322 325 331 332 327 332 338 332 340 343 345 342 338 337 334 332 332 330 330 332 332 332 328 328 326 325
300 299 290 292 300 310 312 311 312 316 319 320 321 323 320 318 321 328 327 329 332 337 343 347 350 352 352 350 349 347 346 344 343 340 338 339 338 336 334 333 332 332 331 332
Height
1461 1460 1462 1464 1464 1466 1468 1466 1469 1465 1463 1463 1465 1469 1472 1473 1475 1476 1479 1481 1484 1487 1490 1494 1497 1500 1503 1506 1509 1512 1515 1517 1519 1522 1525 1527 1529 1531 1532 1534 1535 1537 1538 1539
1464 1461 1462 1464 1461 1461 1463 1463 1463 1462 1463 1464 1469 1471 1473 1473 1474 1475 1477 1479 1481 1484 1486 1489 1492 1495 1498 1500 1504 1506 1509 1512 1515 1517 1520 1522 1524 1526 1528 1530 1531 1533 1534 1535
1466 1461 1465 1467 1458 1459 1460 1459 1461 1462 1462 1466 1470 1473 1475 1476 1475 1475 1476 1477 1479 1481 1483 1485 1488 1490 1493 1496 1499 1501 1504 1507 1510 1512 1515 1517 1520 1522 1523 1525 1527 1528 1529 1530
1464 1469 1480 1462 1457 1457 1459 1459 1461 1463 1465 1469 1472 1475 1477 1477 1477 1476 1476 1477 1478 1479 1481 1483 1485 1487 1489 1492 1494 1497 1500 1502 1505 1507 1510 1512 1515 1517 1518 1520 1522 1523 1524 1525
1467 1468 1464 1458 1458 1459 1461 1462 1464 1465 1467 1470 1472 1473 1476 1478 1478 1477 1477 1477 1478 1478 1479 1481 1482 1484 1486 1488 1491 1493 1496 1498 1500 1503 1505 1507 1510 1512 1514 1516 1517 1518 1519 1519
1467 1472 1472 1461 1459 1462 1463 1466 1468 1468 1469 1470 1470 1467 1476 1480 1479 1478 1477 1477 1477 1478 1478 1479 1480 1482 1484 1485 1488 1490 1492 1494 1496 1499 1501 1503 1506 1508 1509 1510 1512 1513 1514 1514
1465 1467 1458 1459 1461 1463 1469 1470 1471 1471 1472 1472 1474 1476 1481 1481 1480 1479 1478 1478 1477 1478 1478 1479 1480 1481 1482 1484 1486 1488 1490 1491 1492 1494 1497 1499 1502 1503 1505 1506 1506 1507 1507 1508
1462 1467 1467 1462 1461 1463 1469 1471 1472 1474 1475 1476 1479 1481 1482 1482 1482 1481 1480 1479 1479 1478 1478 1479 1480 1481 1482 1483 1485 1486 1487 1488 1490 1491 1493 1495 1497 1498 1499 1500 1500 1500 1500 1501
1456 1463 1465 1465 1466 1469 1471 1472 1474 1476 1478 1479 1481 1483 1484 1484 1484 1483 1482 1481 1481 1480 1480 1480 1481 1482 1482 1483 1484 1485 1486 1487 1487 1488 1489 1491 1492 1493 1493 1494 1495 1495 1495 1495
1459 1461 1466 1468 1470 1471 1472 1474 1476 1478 1480 1482 1483 1485 1486 1487 1487 1486 1485 1484 1484 1483 1482 1482 1482 1483 1483 1483 1483 1484 1484 1485 1485 1485 1486 1487 1488 1489 1489 1490 1490 1489 1489 1489
1461 1464 1467 1470 1472 1473 1475 1477 1479 1480 1483 1484 1486 1488 1489 1489 1489 1489 1488 1488 1487 1485 1484 1484 1484 1484 1483 1483 1484 1484 1483 1484 1483 1483 1483 1484 1484 1485 1485 1485 1484 1484 1483 1482
1462 1467 1468 1472 1474 1475 1477 1479 1482 1483 1486 1488 1489 1491 1491 1492 1492 1491 1491 1490 1489 1488 1487 1487 1487 1486 1485 1484 1485 1484 1483 1483 1483 1483 1483 1483 1483 1482 1480 1480 1479 1478 1476 1476
1469 1470 1471 1474 1476 1478 1480 1483 1485 1487 1489 1491 1493 1494 1494 1494 1494 1494 1493 1492 1491 1491 1490 1489 1488 1487 1487 1486 1485 1484 1483 1483 1483 1483 1482 1482 1481 1480 1478 1476 1474 1472 1471 1469
1471 1472 1474 1476 1479 1482 1484 1487 1489 1491 1492 1494 1495 1496 1496 1496 1496 1495 1495 1494 1493 1492 1491 1490 1489 1488 1488 1487 1486 1485 1484 1483 1483 1482 1481 1480 1478 1477 1475 1473 1471 1469 1466 1463
1474 1475 1477 1480 1482 1485 1488 1490 1492 1494 1496 1497 1498 1498 1498 1498 1498 1497 1496 1495 1494 1493 1492 1491 1490 1489 1488 1487 1486 1485 1484 1483 1482 1480 1479 1477 1476 1474 1472 1469 1467 1464 1462 1459
1477 1479 1481 1483 1486 1489 1491 1493 1495 1497 1498 1499 1499 1499 1499 1499 1498 1497 1496 1495 1494 1493 1492 1491 1490 1489 1487 1486 1485 1484 1482 1481 1479 1478 1476 1474 1472 1470 1468 1465 1462 1459 1457 1454
1481 1483 1485 1488 1490 1493 1494 1496 1498 1499 1500 1500 1500 1500 1500 1499 1498 1497 1496 1495 1494 1492 1491 1490 1489 1487 1486 1485 1483 1482 1480 1478 1476 1474 1472 1470 1468 1466 1463 1461 1458 1454 1452 1449
1485 1487 1489 1491 1494 1495 1497 1498 1499 1500 1500 1500 1500 1500 1499 1498 1497 1496 1495 1494 1492 1491 1490 1488 1486 1485 1483 1482 1480 1478 1477 1474 1472 1470 1468 1466 1463 1461 1458 1455 1452 1449 1446 1443
1489 1491 1493 1495 1496 1497 1498 1499 1500 1500 1500 1500 1500 1499 1498 1497 1496 1494 1493 1492 1490 1489 1487 1485 1483 1482 1481 1479 1476 1475 1472 1470 1468 1465 1463 1460 1458 1455 1453 1450 1446 1443 1440 1437
1493 1495 1496 1497 1498 1499 1499 1499 1500 1500 1500 1499 1498 1498 1497 1495 1494 1493 1491 1489 1488 1486 1484 1483 1480 1479 1477 1475 1472 1471 1468 1466 1463 1460 1458 1455 1453 1450 1447 1444 1441 1437 1434 1430
1496 1497 1498 1498 1499 1499 1499 1499 1499 1499 1498 1498 1497 1496 1495 1494 1492 1490 1488 1487 1486 1483 1481 1479 1478 1476 1473 1470 1468 1466 1464 1461 1458 1456 1453 1450 1447 1444 1441 1438 1435 1432 1428 1425
1498 1498 1499 1499 1499 1499 1499 1499 1498 1498 1497 1496 1495 1494 1493 1491 1489 1488 1486 1485 1483 1480 1478 1477 1475 1471 1468 1466 1464 1462 1459 1456 1454 1451 1448 1445 1442 1439 1436 1433 1430 1426 1422 1419
1499 1499 1499 1499 1499 1498 1498 1497 1497 1496 1495 1494 1493 1492 1490 1489 1487 1485 1484 1482 1480 1477 1474 1473 1469 1466 1463 1461 1459 1457 1454 1452 1449 1446 1443 1440 1437 1434 1430 1427 1424 1420 1417 1413
1499 1499 1499 1498 1498 1497 1496 1495 1495 1494 1493 1492 1490 1489 1487 1486 1484 1482 1480 1478 1475 1472 1471 1468 1465 1462 1459 1457 1455 1452 1450 1447 1444 1441 1438 1435 1432 1429 1425 1422 1418 1415 1411 1408
1499 1498 1498 1497 1496 1495 1494 1493 1492 1491 1490 1488 1487 1485 1484 1482 1481 1478 1476 1474 1471 1469 1467 1464 1461 1458 1456 1454 1451 1449 1446 1443 1440 1437 1434 1431 1427 1424 1421 1417 1413 1410 1406 1403
1497 1497 1496 1495 1494 1493 1492 1490 1489 1488 1486 1485 1484 1482 1481 1479 1477 1475 1473 1470 1468 1465 1463 1461 1458 1456 1453 1451 1448 1445 1443 1440 1437 1434 1431 1427 1424 1420 1417 1413 1409 1406 1402 1399
1495 1494 1493 1492 1491 1490 1489 1487 1486 1485 1483 1482 1480 1479 1477 1475 1474 1471 1469 1467 1465 1463 1460 1458 1456 1453 1451 1448 1446 1443 1440 1437 1434 1431 1428 1424 1421 1417 1414 1410 1407 1404 1400 1397